EW4711 Weather Reports


Display with metric or nautical units.
time (UTC)temp
F
wind
direction
speed
MPH
gust
MPH
rain 1hr
in
rain 24hr
in
rain mn
in
humidity
%
barometer
mb
20200331173103 43 52 4.0 9.0 0.00 0.12 0.00 92 1015.9
20200331172603 43 11 3.0 8.0 0.00 0.12 0.00 91 1015.9
20200331172103 42 33 5.0 8.0 0.00 0.12 0.00 91 1016.0
20200331171603 43 55 6.0 12.0 0.00 0.12 0.00 92 1016.0
20200331171103 42 39 5.0 9.0 0.00 0.12 0.00 93 1015.9
20200331170603 42 55 6.0 12.0 0.00 0.12 0.00 93 1015.9
20200331170105 42 43 6.0 12.0 0.00 0.12 0.00 92 1015.9
20200331165603 42 39 3.0 6.0 0.00 0.12 0.00 92 1015.8
20200331165103 42 30 3.0 9.0 0.00 0.12 0.00 92 1015.8
20200331164603 42 25 4.0 9.0 0.00 0.12 0.00 92 1015.8
20200331164103 42 22 4.0 8.0 0.00 0.12 0.00 92 1015.8
20200331163603 42 36 4.0 10.0 0.00 0.12 0.00 91 1015.9
20200331163103 42 47 5.0 8.0 0.00 0.12 0.00 91 1016.1
20200331162603 43 23 5.0 10.0 0.00 0.12 0.00 91 1015.9
20200331162103 43 32 6.0 9.0 0.00 0.12 0.00 91 1016.0
20200331161603 43 14 4.0 7.0 0.00 0.12 0.00 91 1016.0
20200331161103 43 17 5.0 8.0 0.00 0.12 0.00 90 1016.1
20200331160603 43 21 4.0 7.0 0.00 0.12 0.00 90 1016.0
20200331160106 43 53 5.0 9.0 0.00 0.12 0.00 91 1016.0
20200331155603 43 53 5.0 8.0 0.00 0.12 0.00 91 1016.0
20200331155103 43 53 5.0 9.0 0.00 0.12 0.00 91 1016.1
20200331154604 43 50 6.0 9.0 0.00 0.13 0.00 92 1016.0
20200331154103 43 47 3.0 7.0 0.00 0.13 0.00 92 1016.0
20200331153603 43 48 5.0 9.0 0.00 0.13 0.00 93 1016.0
20200331153103 42 40 3.0 7.0 0.00 0.13 0.00 92 1016.0
20200331152603 42 57 5.0 7.0 0.00 0.13 0.00 92 1016.0
20200331152103 42 48 2.0 6.0 0.00 0.13 0.00 92 1016.2
20200331151603 42 49 4.0 7.0 0.00 0.13 0.00 92 1016.2
20200331151104 42 35 3.0 7.0 0.00 0.14 0.00 92 1016.2
20200331150603 42 55 5.0 7.0 0.00 0.14 0.00 92 1016.1
20200331150105 42 36 5.0 8.0 0.00 0.14 0.00 93 1016.1
20200331145604 42 49 3.0 6.0 0.00 0.15 0.00 94 1016.1
20200331145103 42 55 2.0 7.0 0.00 0.16 0.00 94 1016.2
20200331144604 42 51 6.0 9.0 0.00 0.16 0.00 95 1016.3
20200331144103 42 53 5.0 7.0 0.00 0.17 0.00 96 1016.2
20200331143602 42 33 3.0 7.0 0.00 0.18 0.00 96 1016.2
20200331143103 41 47 3.0 7.0 0.00 0.18 0.00 96 1016.3
20200331142604 41 71 4.0 8.0 0.00 0.18 0.00 96 1016.4
20200331142103 41 54 5.0 7.0 0.00 0.18 0.00 96 1016.4
20200331141604 41 31 3.0 7.0 0.00 0.18 0.00 96 1016.4
20200331141103 41 25 5.0 8.0 0.00 0.19 0.00 97 1016.5
20200331140603 41 24 2.0 9.0 0.00 0.19 0.00 96 1016.5
20200331140106 41 31 3.0 7.0 0.00 0.19 0.00 96 1016.4
20200331135604 41 21 3.0 7.0 0.00 0.19 0.00 96 1016.3
20200331135103 41 19 4.0 8.0 0.00 0.19 0.00 96 1016.3
20200331134603 41 28 4.0 8.0 0.00 0.19 0.00 97 1016.5
20200331134103 41 26 2.0 6.0 0.00 0.19 0.00 97 1016.5
20200331133603 41 42 3.0 5.0 0.00 0.19 0.00 97 1016.4
20200331133103 41 24 3.0 7.0 0.00 0.20 0.00 97 1016.5
20200331132603 41 27 3.0 7.0 0.00 0.20 0.00 97 1016.5
20200331132104 40 6 3.0 7.0 0.00 0.20 0.00 97 1016.5
20200331131604 40 26 2.0 3.0 0.00 0.20 0.00 97 1016.5
20200331131103 40 26 2.0 5.0 0.00 0.20 0.00 97 1016.4
20200331130603 40 7 2.0 5.0 0.00 0.20 0.00 97 1016.4
20200331130106 40 6 3.0 3.0 0.00 0.20 0.00 97 1016.4
20200331125604 40 6 2.0 3.0 0.00 0.20 0.00 97 1016.3
20200331125103 40 6 3.0 3.0 0.00 0.20 0.00 97 1016.4
20200331124603 40 6 2.0 3.0 0.00 0.20 0.00 97 1016.4
20200331124103 40 4 2.0 3.0 0.00 0.20 0.00 97 1016.3
20200331123603 40 6 2.0 3.0 0.00 0.20 0.00 97 1016.3
20200331123103 40 5 3.0 5.0 0.00 0.20 0.00 96 1016.3
20200331122603 40 332 3.0 6.0 0.00 0.20 0.00 96 1016.3
20200331122103 40 6 3.0 6.0 0.00 0.20 0.00 96 1016.3
20200331121603 40 311 2.0 3.0 0.00 0.20 0.00 97 1016.3
20200331121103 40 305 2.0 3.0 0.00 0.20 0.00 97 1016.4
20200331120603 40 301 1.0 3.0 0.00 0.20 0.00 96 1016.3
20200331120105 40 311 2.0 6.0 0.00 0.20 0.00 96 1016.2
20200331115603 40 291 3.0 5.0 0.00 0.20 0.00 96 1016.2
20200331115103 40 325 3.0 5.0 0.00 0.20 0.00 96 1016.3
20200331114603 40 323 1.0 3.0 0.00 0.20 0.00 96 1016.5
20200331114103 40 320 2.0 3.0 0.00 0.20 0.00 96 1016.5
20200331113603 40 320 2.0 5.0 0.00 0.20 0.00 96 1016.4
20200331113103 40 310 1.0 2.0 0.00 0.20 0.00 96 1016.4
20200331112603 40 310 1.0 3.0 0.00 0.20 0.00 96 1016.5
20200331112104 40 310 2.0 3.0 0.00 0.20 0.00 96 1016.4
20200331111603 40 305 2.0 5.0 0.00 0.21 0.00 96 1016.4
20200331111104 39 278 2.0 5.0 0.00 0.21 0.00 96 1016.4
20200331110603 39 291 2.0 6.0 0.00 0.21 0.00 96 1016.4
20200331110105 39 291 3.0 5.0 0.00 0.21 0.00 96 1016.3
20200331105604 39 274 1.0 3.0 0.00 0.21 0.00 96 1016.3
20200331105103 39 271 2.0 3.0 0.00 0.21 0.00 96 1016.3
20200331104604 39 253 2.0 3.0 0.00 0.21 0.00 96 1016.3
20200331104103 39 245 1.0 3.0 0.00 0.21 0.00 96 1016.2
20200331103603 39 245 3.0 5.0 0.00 0.21 0.00 96 1016.0
20200331103103 39 291 2.0 3.0 0.00 0.21 0.00 96 1016.0
20200331102603 39 291 2.0 3.0 0.00 0.21 0.00 96 1015.9
20200331102103 39 291 1.0 2.0 0.00 0.21 0.00 96 1016.0
20200331101603 39 291 1.0 3.0 0.00 0.21 0.00 96 1015.8
20200331101104 39 290 3.0 5.0 0.00 0.21 0.00 96 1015.8
20200331100603 39 226 3.0 5.0 0.00 0.21 0.00 96 1015.7
20200331100106 39 277 3.0 6.0 0.00 0.21 0.00 96 1015.7
20200331095603 39 259 2.0 5.0 0.00 0.21 0.00 96 1015.6
20200331095104 39 252 2.0 5.0 0.00 0.21 0.00 96 1015.6
20200331094603 39 259 3.0 5.0 0.00 0.21 0.00 96 1015.4
20200331094104 39 287 2.0 3.0 0.00 0.21 0.00 96 1015.4
20200331093604 39 282 2.0 3.0 0.00 0.21 0.00 96 1015.3
20200331093104 39 282 2.0 5.0 0.00 0.21 0.00 96 1015.2
20200331092604 39 282 4.0 7.0 0.00 0.21 0.00 96 1015.2
20200331092103 39 282 2.0 7.0 0.00 0.21 0.00 96 1015.2
20200331091603 39 284 3.0 6.0 0.00 0.21 0.00 96 1015.3
20200331091103 39 262 3.0 8.0 0.00 0.21 0.00 96 1015.2
20200331090604 39 256 3.0 8.0 0.00 0.21 0.00 96 1015.2
20200331090106 39 253 3.0 7.0 0.00 0.21 0.00 96 1015.2
20200331085604 39 269 3.0 6.0 0.00 0.21 0.00 96 1015.3
20200331085103 39 267 3.0 7.0 0.00 0.21 0.00 96 1015.3
20200331084603 39 288 3.0 5.0 0.00 0.21 0.00 96 1015.2
20200331084103 39 286 2.0 6.0 0.00 0.21 0.00 96 1015.2
20200331083603 39 289 4.0 6.0 0.00 0.21 0.00 96 1015.3
20200331083103 39 263 2.0 3.0 0.00 0.21 0.00 96 1015.3
20200331082603 39 254 3.0 6.0 0.00 0.21 0.00 96 1015.3
20200331082103 39 288 3.0 5.0 0.00 0.21 0.00 96 1015.2
20200331081603 39 283 3.0 7.0 0.00 0.21 0.00 96 1015.2
20200331081103 39 253 3.0 6.0 0.00 0.21 0.00 96 1015.3
20200331080604 39 277 2.0 7.0 0.00 0.21 0.00 96 1015.3
20200331080106 39 246 3.0 6.0 0.00 0.21 0.00 96 1015.3
20200331075603 39 231 3.0 8.0 0.00 0.21 0.00 95 1015.3
20200331075103 39 260 4.0 8.0 0.00 0.21 0.00 95 1015.3
20200331074603 39 239 3.0 7.0 0.00 0.21 0.00 95 1015.3
20200331074103 39 270 2.0 6.0 0.00 0.21 0.00 95 1015.3
20200331073603 39 287 3.0 5.0 0.00 0.21 0.00 95 1015.2
20200331073103 39 268 2.0 6.0 0.00 0.21 0.00 95 1015.2
20200331072603 39 270 2.0 5.0 0.00 0.21 0.00 95 1015.1
20200331072103 39 258 5.0 8.0 0.00 0.21 0.00 95 1015.1
20200331071604 39 232 2.0 5.0 0.00 0.21 0.00 95 1015.2
20200331071104 39 261 3.0 8.0 0.00 0.21 0.00 95 1015.2
20200331070603 39 250 6.0 9.0 0.00 0.21 0.00 95 1015.1
20200331070105 39 257 4.0 10.0 0.00 0.21 0.00 95 1015.2
20200331065603 39 274 2.0 5.0 0.00 0.21 0.00 95 1015.2
20200331065104 39 252 5.0 9.0 0.00 0.21 0.00 95 1015.2
20200331064603 39 269 3.0 6.0 0.00 0.21 0.00 95 1015.4
20200331064103 39 276 4.0 7.0 0.00 0.21 0.00 95 1015.4
20200331063603 39 268 2.0 3.0 0.00 0.21 0.00 95 1015.4
20200331063103 39 270 3.0 9.0 0.00 0.21 0.00 95 1015.4
20200331062603 39 257 4.0 8.0 0.00 0.21 0.00 95 1015.4
20200331062103 39 235 3.0 6.0 0.00 0.21 0.00 95 1015.5
20200331061604 39 257 2.0 6.0 0.00 0.21 0.00 95 1015.5
20200331061104 39 259 2.0 8.0 0.00 0.21 0.00 95 1015.4
20200331060603 39 276 2.0 8.0 0.00 0.21 0.00 94 1015.4
20200331060105 39 266 3.0 6.0 0.00 0.21 0.00 94 1015.4
20200331055603 39 257 3.0 5.0 0.00 0.21 0.00 94 1015.3
20200331055104 39 231 3.0 5.0 0.00 0.21 0.00 94 1015.3
20200331054604 39 275 2.0 6.0 0.00 0.21 0.00 94 1015.2
20200331054104 39 273 3.0 7.0 0.00 0.21 0.00 94 1015.2
20200331053604 39 253 3.0 7.0 0.00 0.21 0.00 93 1015.2
20200331053104 39 268 3.0 6.0 0.00 0.21 0.00 93 1015.1
20200331052604 39 260 5.0 8.0 0.00 0.21 0.00 93 1015.0
20200331052103 39 277 3.0 6.0 0.00 0.21 0.00 93 1015.0
20200331051603 40 264 2.0 8.0 0.00 0.21 0.00 93 1015.0
20200331051104 40 259 5.0 10.0 0.00 0.21 0.00 93 1015.0
20200331050605 40 237 2.0 9.0 0.00 0.21 0.00 93 1015.0
20200331050106 40 264 3.0 3.0 0.00 0.21 0.00 93 1014.9
20200331045603 40 235 2.0 7.0 0.00 0.21 0.00 93 1014.9
20200331045104 40 263 2.0 3.0 0.00 0.21 0.00 93 1014.9
20200331044603 40 255 2.0 3.0 0.00 0.21 0.00 93 1015.0
20200331044104 40 235 2.0 6.0 0.00 0.21 0.00 93 1015.0
20200331043603 40 248 3.0 8.0 0.00 0.21 0.00 93 1014.9
20200331043103 40 259 3.0 6.0 0.00 0.21 0.00 94 1014.9
20200331042603 40 257 3.0 8.0 0.00 0.21 0.00 94 1014.9
20200331042104 40 270 2.0 7.0 0.00 0.21 0.00 94 1014.9
20200331041604 40 253 3.0 5.0 0.00 0.21 0.00 94 1014.9
20200331041104 40 252 0.0 0.0 0.00 0.21 0.00 94 1015.0
20200331040604 40 268 1.0 5.0 0.00 0.21 0.00 94 1015.0
20200331040106 40 266 4.0 7.0 0.00 0.21 0.00 94 1015.0
20200331035603 40 255 3.0 5.0 0.00 0.21 0.21 94 1015.0
20200331035103 40 255 3.0 5.0 0.00 0.21 0.21 95 1015.0
20200331034604 40 261 2.0 3.0 0.00 0.21 0.21 95 1014.9
20200331034103 40 261 3.0 7.0 0.00 0.21 0.21 95 1014.9
20200331033604 40 266 2.0 5.0 0.00 0.21 0.21 95 1014.9
20200331033103 40 282 3.0 5.0 0.00 0.21 0.21 95 1014.9
20200331032603 40 268 2.0 3.0 0.00 0.21 0.21 95 1014.9
20200331032104 40 268 2.0 5.0 0.00 0.21 0.21 95 1014.8
20200331031604 40 263 2.0 7.0 0.00 0.21 0.21 95 1014.9
20200331031103 40 258 2.0 3.0 0.00 0.21 0.21 95 1014.9
20200331030604 40 258 3.0 3.0 0.00 0.21 0.21 95 1014.9
20200331030105 40 262 3.0 5.0 0.00 0.21 0.21 95 1014.9
20200331025604 40 257 3.0 5.0 0.00 0.21 0.21 95 1015.0
20200331025103 40 247 2.0 6.0 0.01 0.21 0.21 95 1014.9
20200331024604 40 247 2.0 6.0 0.01 0.21 0.21 95 1015.0
20200331024104 40 249 2.0 5.0 0.01 0.21 0.21 95 1015.0
20200331023604 40 276 2.0 3.0 0.02 0.21 0.21 95 1015.0
20200331023104 40 280 2.0 3.0 0.02 0.21 0.21 95 1015.0
20200331022603 40 280 2.0 5.0 0.03 0.21 0.21 95 1015.0
20200331022104 40 284 3.0 5.0 0.03 0.21 0.21 95 1015.0
20200331021604 40 294 2.0 5.0 0.03 0.21 0.21 95 1014.9
20200331021104 40 285 2.0 5.0 0.04 0.21 0.21 95 1014.9
20200331020603 40 289 2.0 7.0 0.04 0.21 0.21 95 1015.0
20200331020106 40 268 2.0 5.0 0.04 0.21 0.21 95 1015.0
20200331015604 40 296 3.0 6.0 0.04 0.21 0.21 95 1015.0
20200331015104 40 276 3.0 6.0 0.04 0.20 0.20 95 1015.0
20200331014603 41 278 4.0 10.0 0.04 0.20 0.20 95 1015.0
20200331014104 41 283 5.0 8.0 0.04 0.20 0.20 95 1015.1
20200331013603 41 276 5.0 6.0 0.04 0.19 0.19 95 1015.0
20200331013104 41 264 4.0 8.0 0.04 0.19 0.19 95 1015.0
20200331012604 41 242 5.0 9.0 0.04 0.18 0.18 95 1015.0
20200331012103 41 271 3.0 5.0 0.04 0.18 0.18 95 1014.9
20200331011603 41 250 2.0 5.0 0.04 0.18 0.18 95 1014.9
20200331011103 41 266 3.0 5.0 0.04 0.17 0.17 95 1014.8
20200331010603 41 227 2.0 3.0 0.05 0.17 0.17 95 1014.8
20200331010106 41 221 4.0 8.0 0.05 0.17 0.17 95 1014.8
20200331005604 41 233 3.0 6.0 0.05 0.17 0.17 95 1014.8
20200331005104 41 232 2.0 3.0 0.05 0.16 0.16 95 1014.7
20200331004604 41 222 1.0 5.0 0.05 0.16 0.16 95 1014.7
20200331004104 41 223 3.0 8.0 0.05 0.16 0.16 95 1014.6
20200331003604 41 234 3.0 7.0 0.05 0.15 0.15 95 1014.5
20200331003104 41 206 3.0 7.0 0.05 0.15 0.15 95 1014.5
20200331002604 41 213 3.0 5.0 0.04 0.14 0.14 95 1014.5
20200331002104 41 192 4.0 7.0 0.04 0.14 0.14 95 1014.5
20200331001604 41 193 4.0 7.0 0.04 0.14 0.14 94 1014.4
20200331001104 41 218 3.0 8.0 0.03 0.13 0.13 94 1014.3
20200331000603 41 224 2.0 7.0 0.02 0.12 0.12 94 1014.3
20200331000106 41 197 3.0 5.0 0.02 0.12 0.12 94 1014.2
20200330235604 41 201 4.0 9.0 0.02 0.12 0.12 94 1014.2
20200330235104 41 194 5.0 12.0 0.01 0.11 0.11 94 1014.1
20200330234603 41 212 3.0 6.0 0.01 0.11 0.11 94 1014.1
20200330234103 41 217 3.0 8.0 0.01 0.11 0.11 93 1014.0
20200330233603 41 219 3.0 8.0 0.00 0.10 0.10 94 1014.0
20200330233104 41 199 5.0 8.0 0.00 0.10 0.10 94 1013.9
20200330232604 41 222 2.0 5.0 0.00 0.10 0.10 94 1013.8
20200330232104 41 183 5.0 8.0 0.00 0.10 0.10 93 1013.7
20200330231604 41 209 6.0 13.0 0.00 0.10 0.10 93 1013.7
20200330231104 41 195 3.0 6.0 0.00 0.10 0.10 93 1013.7
20200330230603 41 193 6.0 12.0 0.00 0.10 0.10 93 1013.7
20200330230106 41 194 5.0 12.0 0.00 0.10 0.10 93 1013.6
20200330225604 41 187 6.0 12.0 0.00 0.10 0.10 93 1013.5
20200330225103 41 189 5.0 12.0 0.00 0.10 0.10 93 1013.5
20200330224603 42 194 7.0 12.0 0.00 0.10 0.10 93 1013.4
20200330224103 42 192 7.0 13.0 0.00 0.10 0.10 93 1013.4
20200330223604 42 190 5.0 12.0 0.00 0.10 0.10 93 1013.3
20200330223104 42 199 5.0 12.0 0.00 0.10 0.10 93 1013.3
20200330222604 42 196 6.0 9.0 0.01 0.10 0.10 93 1013.2
20200330222104 42 214 6.0 12.0 0.01 0.10 0.10 93 1013.2
20200330221604 42 193 5.0 12.0 0.01 0.10 0.10 93 1013.1
20200330221104 42 185 5.0 14.0 0.01 0.10 0.10 92 1013.0
20200330220603 42 206 5.0 10.0 0.01 0.10 0.10 92 1012.9
20200330220106 42 199 6.0 8.0 0.01 0.10 0.10 92 1012.9
20200330215604 42 192 6.0 12.0 0.01 0.10 0.10 92 1012.8
20200330215104 42 200 4.0 10.0 0.01 0.10 0.10 92 1012.7
20200330214604 42 193 8.0 12.0 0.01 0.10 0.10 92 1012.7
20200330214103 42 198 7.0 12.0 0.01 0.10 0.10 92 1012.6
20200330213604 42 202 4.0 13.0 0.01 0.10 0.10 92 1012.6
20200330213104 42 186 5.0 12.0 0.01 0.10 0.10 92 1012.5
20200330212603 42 195 6.0 12.0 0.00 0.09 0.09 92 1012.5
20200330212104 42 192 7.0 10.0 0.00 0.09 0.09 92 1012.4
20200330211604 42 213 4.0 12.0 0.00 0.09 0.09 91 1012.4
20200330211104 42 201 7.0 14.0 0.00 0.09 0.09 91 1012.4
20200330210604 42 206 4.0 10.0 0.00 0.09 0.09 91 1012.4
20200330210106 42 197 4.0 12.0 0.00 0.09 0.09 91 1012.3
20200330205604 42 192 6.0 12.0 0.00 0.09 0.09 90 1012.3
20200330205104 42 188 1.0 10.0 0.00 0.09 0.09 90 1012.3
20200330204604 42 193 0.0 12.0 0.00 0.09 0.09 90 1012.2
20200330204103 42 199 4.0 9.0 0.00 0.09 0.09 90 1012.2
20200330203604 43 190 7.0 13.0 0.00 0.09 0.09 89 1012.1
20200330203103 43 193 5.0 10.0 0.00 0.09 0.09 89 1012.1
20200330202604 43 184 6.0 14.0 0.00 0.09 0.09 89 1012.1
20200330202103 43 194 7.0 12.0 0.00 0.09 0.09 88 1012.0
20200330201604 43 181 6.0 12.0 0.00 0.09 0.09 88 1011.9
20200330201103 43 187 5.0 9.0 0.00 0.09 0.09 88 1011.9
20200330200604 43 196 7.0 14.0 0.00 0.09 0.09 87 1011.8
20200330200106 44 195 5.0 14.0 0.00 0.09 0.09 88 1011.7
20200330195603 44 197 0.0 13.0 0.00 0.09 0.09 88 1011.7
20200330195103 44 200 7.0 13.0 0.00 0.09 0.09 88 1011.6
20200330194604 44 202 6.0 12.0 0.00 0.10 0.09 88 1011.6
20200330194103 44 204 3.0 12.0 0.00 0.10 0.09 87 1011.6
20200330193603 44 203 6.0 10.0 0.00 0.11 0.09 87 1011.5
20200330193104 44 186 6.0 9.0 0.00 0.11 0.09 87 1011.6
20200330192603 44 203 5.0 13.0 0.00 0.11 0.09 86 1011.6
20200330192104 44 211 7.0 14.0 0.00 0.11 0.09 87 1011.5
20200330191604 44 200 7.0 12.0 0.00 0.11 0.09 87 1011.4
20200330191104 44 195 0.0 10.0 0.00 0.11 0.09 87 1011.4
20200330190604 44 200 2.0 12.0 0.00 0.11 0.09 86 1011.3
20200330190106 45 205 6.0 12.0 0.00 0.11 0.09 86 1011.3
20200330185604 45 194 5.0 14.0 0.00 0.11 0.09 86 1011.4
20200330185103 45 185 5.0 16.0 0.00 0.11 0.09 86 1011.3
20200330184604 45 201 5.0 16.0 0.00 0.11 0.09 86 1011.3
20200330184104 45 204 5.0 12.0 0.00 0.11 0.09 85 1011.2
20200330183604 45 195 7.0 12.0 0.00 0.12 0.09 85 1011.2
20200330183104 45 203 7.0 13.0 0.00 0.12 0.09 85 1011.1
20200330182603 46 209 5.0 13.0 0.00 0.12 0.09 85 1011.2
20200330182104 46 193 2.0 12.0 0.00 0.15 0.09 86 1011.1
20200330181604 46 227 0.0 0.0 0.00 0.35 0.09 87 1011.2
20200330181103 45 210 2.0 9.0 0.00 0.37 0.09 87 1011.1
20200330180604 45 208 1.0 16.0 0.00 0.37 0.09 86 1011.1
20200330180106 45 205 7.0 13.0 0.00 0.37 0.09 86 1011.1
20200330175603 45 225 7.0 13.0 0.00 0.37 0.09 86 1011.1
20200330175104 45 224 7.0 15.0 0.00 0.37 0.09 85 1011.0
20200330174604 45 218 6.0 14.0 0.00 0.37 0.09 87 1010.9
20200330174103 45 201 8.0 14.0 0.00 0.37 0.09 87 1010.8
20200330173604 45 209 9.0 14.0 0.00 0.37 0.09 87 1010.8